Weather History for Trondheim, Norway

Change the Weather History Date:

Wednesday, May 15, 2013

  Actual Average Record
Temperature  
Mean Temperature 46 °F -  
Max Temperature 59 °F 56 °F 66 °F (2000)
Min Temperature 34 °F 42 °F 31 °F (2014)
Degree Days  
Heating Degree Days 18    
Moisture  
Dew Point 33 °F    
Average Humidity 50    
Maximum Humidity 87    
Minimum Humidity 17    
Precipitation  
Precipitation 0.00 in 0.08 in - ()
Sea Level Pressure  
Sea Level Pressure 29.75 in    
Wind  
Wind Speed 9 mph ()    
Max Wind Speed 22 mph    
Max Gust Speed 28 mph    
Visibility 6.2 miles    
Events      
Averages and records for this station are not official NWS values.
T = Trace of Precipitation, MM = Missing Value Source: Averaged Metar Reports

Daily Weather History Graph

Daily Weather History Graph

Search for Another Location

Airport:

Trip Planner

Search our weather history database for the weather conditions in past years. The results will help you decide how hot, cold, wet, or windy it might be!

Date:

Astronomy

May. 15, 2013 Rise Set
Actual Time 4:08 AM CEST 10:18 PM CEST
Civil Twilight 2:38 AM CEST 11:52 PM CEST
Nautical Twilight Sun does not rise Sun does not rise
Astronomical Twilight Sun does not rise Sun does not rise
Moon 8:47 AM CEST (5/15) 1:38 AM CEST (5/15)
Length of Visible Light 21h 14m
Length of Day
18h 10m
Waxing Crescent, 24% of the Moon is Illuminated
May 15
Waxing Crescent
May 18
First Quarter
May 25
Full
May 31
Last Quarter
Jun 8
New

Hourly Weather History & Observations

Time (CEST) Temp. Windchill Dew Point Humidity Pressure Visibility Wind Dir Wind Speed Gust Speed Precip Events Conditions
12:20 AM 42.8 °F 38.0 °F 35.6 °F 76% 29.65 in - ESE 8.1 mph - N/A   Clear
12:50 AM 42.8 °F 39.3 °F 35.6 °F 76% 29.68 in - ESE 5.8 mph - N/A   Clear
1:20 AM 41.0 °F 36.4 °F 35.6 °F 81% 29.68 in - ESE 6.9 mph - N/A   Clear
1:50 AM 41.0 °F 36.4 °F 33.8 °F 76% 29.68 in - ESE 6.9 mph - N/A   Clear
2:00 AM 40 °F - 34 °F 72% 29.70 in 31 mi ESE 6.7 mph - -   Clear
2:50 AM 37.4 °F 32.1 °F 33.8 °F 87% 29.68 in - SE 6.9 mph - N/A   Clear
3:50 AM 37.4 °F 30.8 °F 32.0 °F 81% 29.71 in - East 9.2 mph - N/A   Clear
5:50 AM 35.6 °F 29.2 °F 32.0 °F 87% 29.74 in - ESE 8.1 mph - N/A   Clear
6:20 AM 37.4 °F 33.8 °F 32.0 °F 81% 29.74 in - East 4.6 mph - N/A   Clear
6:50 AM 39.2 °F 35.0 °F 32.0 °F 75% 29.74 in - ESE 5.8 mph - N/A   Clear
7:20 AM 41.0 °F 36.4 °F 33.8 °F 76% 29.77 in - East 6.9 mph - N/A   Clear
7:50 AM 44.6 °F 41.4 °F 35.6 °F 71% 29.77 in - East 5.8 mph - N/A   Clear
8:00 AM 46 °F - 35 °F 56% 29.78 in 25 mi East 6.7 mph - -   Clear
8:20 AM 48.2 °F - 35.6 °F 62% 29.77 in - East 6.9 mph - N/A   Clear
8:50 AM 50.0 °F - 32.0 °F 50% 29.77 in - ESE 6.9 mph - N/A   Clear
9:20 AM 51.8 °F - 32.0 °F 47% 29.77 in - SSE 8.1 mph - N/A   Clear
9:50 AM 51.8 °F - 32.0 °F 47% 29.77 in - SSE 6.9 mph - N/A   Clear
10:20 AM 53.6 °F - 32.0 °F 44% 29.80 in - SSW 9.2 mph - N/A   Clear
10:50 AM 55.4 °F - 32.0 °F 41% 29.80 in - SSE 12.7 mph - N/A   Clear
11:20 AM 55.4 °F - 32.0 °F 41% 29.80 in - South 11.5 mph - N/A   Clear
11:50 AM 55.4 °F - 30.2 °F 38% 29.80 in - South 12.7 mph - N/A   Clear
12:20 PM 57.2 °F - 30.2 °F 36% 29.80 in - South 12.7 mph - N/A   Clear
12:50 PM 57.2 °F - 28.4 °F 33% 29.80 in - SSE 12.7 mph 25.3 mph N/A   Clear
1:20 PM 57.2 °F - 30.2 °F 36% 29.77 in - SSE 13.8 mph 26.5 mph N/A   Clear
1:50 PM 57.2 °F - 28.4 °F 33% 29.80 in - South 13.8 mph 26.5 mph N/A   Clear
2:00 PM 58 °F - 25 °F 17% 29.80 in 22 mi South 15.7 mph - -   Clear
2:20 PM 59.0 °F - 26.6 °F 29% 29.80 in - SSW 17.3 mph - N/A   Clear
2:50 PM 59.0 °F - 28.4 °F 31% 29.80 in - South 15.0 mph 27.6 mph N/A   Clear
3:20 PM 57.2 °F - 28.4 °F 33% 29.80 in - South 16.1 mph 27.6 mph N/A   Clear
3:50 PM 59.0 °F - 32.0 °F 36% 29.80 in - SSE 17.3 mph - N/A   Clear
4:20 PM 57.2 °F - 32.0 °F 38% 29.80 in - South 12.7 mph - N/A   Clear
4:50 PM 55.4 °F - 32.0 °F 41% 29.80 in - South 16.1 mph - N/A   Clear
5:20 PM 57.2 °F - 33.8 °F 41% 29.77 in - South 16.1 mph - N/A   Clear
5:50 PM 57.2 °F - 33.8 °F 41% 29.77 in - SSE 12.7 mph - N/A   Clear
6:20 PM 55.4 °F - 33.8 °F 44% 29.77 in - SSE 8.1 mph - N/A   Clear
6:50 PM 57.2 °F - 33.8 °F 41% 29.74 in - ESE 10.4 mph - N/A   Clear
7:20 PM 57.2 °F - 33.8 °F 41% 29.74 in - SSE 10.4 mph - N/A   Clear
7:50 PM 57.2 °F - 33.8 °F 41% 29.74 in - ESE 8.1 mph - N/A   Clear
8:00 PM 56 °F - 34 °F 31% 29.74 in 31 mi East 8.9 mph - -   Clear
8:20 PM 57.2 °F - 33.8 °F 41% 29.71 in - ESE 9.2 mph - N/A   Clear
8:50 PM 55.4 °F - 33.8 °F 44% 29.71 in - East 10.4 mph - N/A   Clear
9:20 PM 55.4 °F - 35.6 °F 47% 29.71 in - East 11.5 mph - N/A   Clear
9:50 PM 55.4 °F - 33.8 °F 44% 29.71 in - East 11.5 mph - N/A   Clear
10:20 PM 55.4 °F - 33.8 °F 44% 29.71 in - East 15.0 mph - N/A   Clear
10:50 PM 55.4 °F - 33.8 °F 44% 29.71 in 6.2 mi East 13.8 mph - N/A   Partly Cloudy
11:50 PM 57.2 °F - 33.8 °F 41% 29.68 in - SE 21.9 mph - N/A   Clear